Temperature
2 2 1 1 1 -0 1 1 2 2 2 4 4 3 4 5 5 5 6 6 6 6 5 5 5 5 4 4 4 4 3 3 3 3 3 2 2 2 2 2 2 1 1 1
1 1 1 2 1 1 1 2 1 2 2 3 4 4 4 4 4 4 5 5 5 5 5 5 5 4 4 4 3 3 3 3 2 2 2 2 2 2 2 1 1 1 1 1
1 1 2 1 1 1 1 1 1 2 4 3 3 2 3 4 4 4 5 5 5 5 4 4 4 4 3 3 3 3 2 2 2 2 2 1 1 1 1 1 1 1 1 0
0 1 1 3 2 2 2 2 1 2 2 2 3 3 4 4 4 5 5 4 4 4 4 4 4 3 3 3 2 2 2 2 2 1 1 1 0 1 1 0 0 0 0 0
-0 0 1 2 2 1 1 1 1 1 2 2 2 2 3 5 4 5 4 4 4 4 4 3 3 3 2 2 2 2 1 1 1 1 0 0 0 0 -0 -0 -0 -0 -0 -0
-1 1 1 3 2 1 2 2 2 1 1 1 1 1 2 4 4 4 4 4 3 3 3 3 2 2 2 1 1 1 1 1 0 0 -0 -0 -0 -0 -1 -1 -1 -1 -1 -1
-1 0 1 2 1 2 2 2 2 2 1 1 0 2 3 3 3 3 3 3 3 3 2 2 2 1 1 1 1 0 0 0 -0 -0 -1 -1 -1 -1 -1 -1 -1 -1 -2 -1
-1 -0 1 1 0 1 2 2 2 2 2 2 2 2 2 3 3 3 3 2 2 2 2 2 1 1 1 0 0 -0 -0 -0 -1 -1 -1 -1 -1 -1 -1 -2 -2 -2 -2 -2
-0 1 1 1 1 2 2 2 2 2 2 2 2 2 2 2 2 2 2 2 1 1 1 1 0 0 -0 -0 -0 -1 -1 -1 -1 -1 -1 -2 -2 -2 -2 -2 -3 -3 -3 -3
-2 -1 -0 0 1 2 2 2 2 2 2 2 2 2 1 1 1 1 1 1 1 1 0 0 -0 -0 -1 -1 -1 -1 -1 -2 -2 -2 -2 -2 -2 -2 -2 -3 -3 -3 -3 -4
-2 -2 -1 0 1 2 2 2 1 1 1 1 1 1 1 1 0 0 -0 -0 -0 -0 -0 -1 -1 -1 -1 -2 -2 -2 -2 -2 -2 -2 -2 -2 -2 -3 -3 -3 -4 -4 -4 -4
-1 -1 -1 -0 1 1 1 1 1 1 0 0 0 -0 -0 -0 -0 -1 -1 -1 -1 -1 -1 -1 -1 -2 -2 -2 -2 -3 -3 -3 -3 -3 -3 -3 -3 -3 -3 -3 -4 -4 -4 -4
-1 -0 -0 0 0 0 0 0 0 -0 -0 -0 -0 -1 -1 -1 -1 -1 -1 -1 -2 -2 -2 -2 -2 -2 -2 -3 -3 -3 -3 -3 -3 -4 -4 -4 -4 -4 -4 -3 -3 -4 -4 -4
-1 -1 -2 -1 -1 -1 -1 -1 -1 -1 -1 -1 -1 -1 -1 -1 -2 -2 -2 -2 -2 -2 -2 -3 -3 -3 -3 -3 -4 -4 -4 -4 -4 -4 -4 -4 -4 -4 -4 -4 -4 -4 -3 -4
-2 -2 -2 -2 -2 -2 -2 -2 -2 -1 -1 -2 -2 -2 -2 -2 -2 -3 -3 -3 -3 -3 -3 -3 -3 -4 -4 -4 -4 -4 -4 -4 -4 -4 -4 -4 -4 -4 -5 -5 -5 -4 -4 -4
-3 -3 -3 -3 -3 -3 -3 -3 -3 -3 -2 -3 -3 -3 -3 -3 -3 -3 -3 -3 -4 -4 -4 -4 -4 -4 -4 -5 -5 -5 -4 -5 -5 -5 -5 -4 -4 -5 -5 -5 -5 -5 -5 -4
-4 -4 -4 -4 -4 -4 -4 -4 -4 -3 -4 -4 -4 -4 -4 -4 -4 -4 -4 -4 -4 -4 -5 -5 -5 -5 -5 -5 -5 -5 -5 -5 -5 -5 -5 -5 -5 -5 -5 -5 -5 -5 -5 -5
-4 -4 -4 -4 -4 -4 -4 -4 -4 -4 -5 -5 -5 -5 -5 -5 -5 -5 -5 -5 -5 -5 -5 -5 -5 -6 -6 -6 -6 -6 -5 -5 -5 -5 -5 -5 -5 -5 -5 -5 -5 -5 -5 -4
-5 -5 -5 -5 -5 -5 -5 -5 -5 -5 -5 -5 -5 -5 -5 -5 -5 -5 -6 -6 -6 -6 -6 -6 -6 -6 -6 -6 -6 -6 -6 -6 -6 -6 -5 -5 -5 -5 -5 -5 -5 -5 -5 -5
-5 -5 -5 -5 -5 -5 -5 -6 -6 -6 -6 -6 -6 -6 -6 -6 -6 -6 -6 -6 -6 -6 -6 -6 -6 -6 -6 -6 -6 -6 -6 -6 -6 -6 -6 -6 -5 -5 -5 -5 -5 -5 -5 -5
-6 -6 -6 -6 -6 -6 -6 -6 -6 -6 -6 -6 -6 -6 -6 -7 -7 -7 -7 -7 -7 -7 -7 -7 -7 -7 -7 -7 -7 -7 -7 -6 -6 -6 -6 -6 -6 -5 -5 -5 -5 -5 -5 -5
-6 -6 -6 -6 -6 -7 -7 -7 -7 -7 -7 -7 -7 -7 -7 -7 -7 -7 -7 -8 -7 -8 -8 -7 -7 -7 -7 -7 -7 -7 -7 -7 -7 -6 -6 -6 -6 -6 -5 -5 -5 -5 -5 -5
-7 -7 -7 -7 -7 -7 -7 -7 -7 -7 -7 -7 -7 -8 -8 -8 -8 -8 -8 -8 -8 -8 -8 -8 -8 -8 -8 -8 -8 -7 -7 -7 -7 -7 -6 -6 -6 -6 -5 -5 -5 -5 -5 -5
-7 -8 -8 -8 -8 -8 -8 -8 -8 -8 -8 -8 -8 -8 -8 -8 -8 -8 -8 -8 -8 -8 -8 -8 -8 -8 -8 -8 -8 -7 -7 -7 -7 -7 -7 -6 -6 -6 -5 -5 -5 -5 -5 -5
-8 -8 -8 -8 -8 -8 -8 -8 -8 -8 -8 -8 -9 -9 -9 -9 -9 -9 -9 -9 -9 -9 -8 -8 -8 -8 -8 -8 -8 -8 -8 -8 -7 -7 -7 -6 -6 -6 -5 -5 -5 -5 -5 -5
-8 -8 -9 -9 -9 -9 -9 -9 -9 -9 -9 -9 -9 -9 -9 -9 -9 -9 -9 -9 -9 -9 -8 -8 -8 -8 -8 -8 -8 -8 -8 -8 -7 -7 -7 -7 -6 -6 -5 -5 -5 -5 -5 -5
-9 -9 -9 -9 -9 -9 -9 -9 -9 -9 -9 -9 -9 -9 -9 -9 -9 -9 -9 -9 -9 -9 -9 -9 -8 -8 -8 -8 -8 -8 -8 -8 -8 -7 -7 -7 -6 -6 -5 -5 -5 -5 -5 -5
Wind_Speed
2 2 4 5 7 10 10 9 9 9 10 12 8 6 5 4 4 3 4 4 4 4 4 4 4 4 4 5 4 4 5 6 8 9 9 9 10 10 10 10 11 10 10 11
1 3 3 4 8 12 12 10 10 10 11 9 6 3 4 5 5 5 6 5 5 5 5 4 4 4 4 5 5 4 5 7 8 8 9 9 10 10 10 10 10 10 10 11
2 1 0 8 11 13 8 8 9 13 14 5 4 6 6 6 6 7 7 6 6 6 5 5 5 4 5 5 5 5 6 7 8 8 9 10 10 10 11 10 10 11 11 11
3 3 7 8 3 9 10 9 11 9 8 5 7 5 5 5 6 7 6 6 6 5 5 4 3 3 3 4 4 5 7 8 8 9 10 10 10 11 10 9 9 10 10 10
4 4 7 7 3 5 7 8 9 12 11 6 1 3 5 4 5 7 6 6 5 4 4 3 3 3 3 4 4 5 7 8 9 9 10 10 11 11 10 9 10 9 9 9
4 4 7 6 2 3 5 5 4 6 8 4 3 1 5 3 2 4 3 3 2 2 1 2 3 2 2 4 5 7 8 9 9 9 9 10 11 10 9 8 9 9 9 8
5 5 7 5 2 5 5 6 2 3 4 4 6 6 4 3 3 2 1 2 1 1 1 3 2 2 3 5 6 7 8 8 9 9 9 9 9 8 8 8 8 8 9 8
5 5 8 2 5 6 5 2 1 2 2 4 4 4 3 3 2 2 2 2 1 1 3 3 2 2 4 6 7 7 7 8 9 9 8 8 8 8 8 7 8 8 9 9
8 7 2 4 4 3 2 2 2 2 3 2 2 3 3 3 2 2 2 2 2 2 3 4 3 2 5 6 6 6 7 8 9 9 8 7 7 8 7 6 6 7 7 8
3 6 4 4 3 2 2 3 2 2 2 2 2 3 3 3 2 2 2 3 2 2 3 5 5 4 4 5 5 6 7 8 8 8 8 8 6 6 6 6 6 7 7 7
4 5 3 4 4 3 2 2 2 2 1 2 2 2 2 2 2 2 3 3 2 3 4 5 5 5 5 5 5 6 7 7 8 7 7 7 7 6 7 5 6 7 6 6
6 5 4 5 3 1 2 3 3 2 2 1 2 2 1 1 2 2 3 3 3 4 4 5 5 5 5 5 5 5 6 7 6 6 6 6 7 8 9 8 12 12 11 10
3 3 4 3 2 2 2 2 1 1 2 1 1 1 1 2 2 2 2 3 3 4 4 5 5 5 6 5 5 5 6 6 6 6 6 6 6 7 8 9 11 11 12 12
2 1 2 2 2 2 1 1 1 1 0 0 1 0 0 1 2 3 3 3 3 3 4 4 5 6 6 6 6 6 6 7 6 5 5 6 6 6 6 7 8 8 9 12
3 1 2 1 2 2 2 2 2 2 2 2 2 1 1 1 3 4 4 4 3 3 4 4 5 6 6 6 6 6 6 5 6 5 5 5 6 6 5 6 6 7 7 8
3 2 1 1 1 2 2 2 1 2 2 2 2 2 2 2 2 3 3 3 3 4 5 5 5 6 6 6 7 6 5 9 9 6 5 5 5 5 5 5 5 6 6 7
1 2 2 2 2 2 2 1 1 1 1 2 2 2 2 2 3 3 4 4 3 4 4 4 6 6 6 6 6 5 5 7 10 7 5 5 5 5 5 4 5 5 5 7
1 2 2 2 2 1 1 2 1 1 2 2 2 2 2 2 3 4 4 4 4 4 4 5 5 6 6 6 5 5 5 5 5 5 5 5 5 4 4 4 4 5 5 6
2 2 2 2 1 1 1 1 2 2 2 2 2 2 2 2 3 3 4 4 5 6 6 6 9 7 6 7 7 4 5 6 6 5 5 6 6 4 4 4 4 4 4 5
3 3 3 3 3 2 2 2 2 2 2 2 1 2 2 3 3 4 4 4 4 5 6 7 7 6 6 7 8 4 5 5 5 5 5 5 4 4 4 4 4 4 4 4
3 3 4 3 3 3 3 2 2 2 3 2 2 2 2 3 4 3 3 4 5 6 6 8 6 5 6 6 7 4 5 5 5 5 5 5 5 4 4 4 4 4 4 3
2 3 3 3 3 3 4 3 3 3 3 3 3 3 3 4 4 4 3 3 5 9 7 5 5 8 9 9 5 4 5 5 5 4 4 5 4 4 4 4 4 4 3 3
2 2 2 2 2 2 3 4 3 3 3 3 3 3 3 3 3 3 5 4 5 8 7 5 8 12 12 7 5 4 5 5 5 5 5 4 4 4 4 5 4 4 3 3
2 2 2 2 2 3 4 4 4 3 3 3 3 3 3 3 3 3 3 7 10 10 6 8 12 12 11 5 4 4 4 5 4 4 4 4 4 4 4 4 4 3 3 3
2 2 3 3 3 2 2 3 3 4 4 3 4 4 3 2 2 4 5 6 9 9 6 8 12 12 7 5 5 5 4 4 4 4 4 4 4 4 4 4 4 3 3 3
2 2 2 2 1 1 2 2 2 3 3 4 4 4 4 3 3 4 4 5 6 8 6 5 6 7 5 5 5 5 5 5 5 5 5 4 4 4 4 5 5 4 3 2
2 2 2 2 2 2 2 2 2 3 3 3 4 4 4 4 4 4 5 5 5 5 5 5 5 5 5 5 5 5 5 4 4 4 4 4 4 4 4 5 4 3 2 2
Wind_Direction
223 154 158 190 197 191 201 203 208 233 236 254 257 252 258 260 267 274 277 279 264 256 260 267 274 277 278 285 289 294 295 294 293 296 297 296 296 297 295 288 285 282 282 282
234 204 203 235 217 205 219 224 235 259 264 249 251 247 256 257 254 263 270 270 266 262 263 268 270 277 285 288 293 297 293 293 297 302 302 301 300 300 299 295 291 289 285 283
217 195 92 258 219 200 206 211 202 231 247 241 237 241 242 247 248 250 258 263 262 260 258 260 261 264 271 282 296 300 298 300 303 304 303 302 304 304 302 302 298 294 290 285
155 134 228 246 205 193 208 229 216 232 248 236 235 246 247 237 235 248 252 253 256 257 262 269 269 275 284 297 303 302 302 304 305 305 303 304 305 304 304 304 301 299 295 290
166 208 267 284 221 174 193 252 231 232 249 256 269 329 292 244 224 238 245 247 250 249 254 264 268 277 297 304 304 302 302 303 303 303 303 305 305 305 306 306 305 304 302 300
170 192 234 251 224 168 131 271 254 211 238 242 134 250 272 277 263 259 254 244 256 265 269 271 283 289 295 298 302 301 301 302 303 303 302 301 300 302 304 303 303 306 303 305
194 218 255 253 197 132 162 241 255 200 220 198 195 220 255 289 299 283 283 283 272 267 278 276 284 288 290 297 295 298 302 305 306 306 302 299 301 304 305 306 308 309 307 306
176 207 247 202 138 175 214 243 205 214 213 205 224 254 280 292 298 310 323 325 317 302 296 294 287 283 292 294 299 306 309 310 310 310 309 312 310 310 309 309 313 315 316 313
194 216 252 182 196 224 212 231 246 237 245 212 237 267 281 289 292 301 305 308 310 287 298 306 301 283 287 298 310 316 317 315 314 315 316 314 311 314 316 317 315 315 316 316
236 258 255 248 258 258 223 229 258 253 246 205 239 267 280 285 296 309 315 314 314 309 303 307 310 304 291 304 314 316 316 316 317 319 319 320 318 316 317 319 317 314 313 312
241 268 294 273 246 251 257 265 276 282 266 246 242 271 270 270 279 292 304 308 305 289 288 296 307 308 311 313 316 317 315 314 317 319 317 319 321 315 314 308 305 310 311 312
227 229 219 249 259 252 243 260 257 259 286 289 226 244 269 274 279 292 305 313 312 305 303 306 311 312 315 316 316 314 315 317 317 318 318 318 320 320 319 319 322 324 323 318
241 270 253 263 289 305 257 267 271 235 226 256 279 230 238 271 288 298 304 307 300 299 303 308 313 315 317 319 317 311 307 309 311 313 315 318 320 323 323 329 333 335 336 336
280 330 289 284 292 321 321 328 32 30 355 261 291 321 294 286 296 300 302 302 301 306 310 310 314 317 320 321 319 314 311 311 314 306 308 311 313 315 317 323 329 333 339 341
313 277 235 295 352 17 25 43 44 17 12 8 7 3 341 317 309 312 317 319 322 323 321 321 322 320 323 323 321 317 316 315 311 307 308 309 312 316 318 320 323 325 331 338
323 3 53 60 26 4 13 23 11 319 339 350 354 343 331 318 315 321 325 327 323 316 315 319 319 317 321 324 325 322 318 319 320 312 313 316 317 318 321 325 326 328 331 332
9 340 348 331 328 333 335 320 293 297 330 341 331 331 340 345 342 338 332 327 316 301 305 312 312 317 322 324 322 318 316 317 322 321 318 315 316 317 318 320 323 326 324 329
277 269 260 243 250 280 337 354 357 349 330 324 334 344 343 337 322 319 320 324 330 329 329 323 316 322 325 324 322 317 314 313 317 316 314 314 314 314 316 316 320 323 327 334
27 32 28 27 35 84 25 355 348 346 343 345 350 335 325 324 319 319 324 335 337 332 329 327 329 334 326 325 328 315 315 318 321 319 316 318 322 321 317 315 319 323 326 335
34 40 49 43 39 48 42 8 358 354 343 341 356 5 356 344 340 338 338 330 319 305 308 318 326 326 321 321 327 318 319 319 319 319 319 318 317 317 317 319 321 326 333 340
31 36 42 42 36 32 31 16 13 3 354 9 25 359 339 337 342 342 340 330 324 325 325 329 333 324 322 325 326 323 322 320 320 319 317 315 317 322 323 324 326 329 334 340
20 34 34 36 39 24 14 18 25 19 17 19 17 8 357 348 346 340 322 302 312 328 334 326 323 325 331 330 326 324 322 320 320 320 317 317 320 323 324 324 323 324 329 337
19 31 36 35 34 15 13 20 19 20 14 3 356 351 342 330 329 328 325 324 325 330 334 325 329 332 334 336 331 328 325 323 323 321 320 320 319 318 318 318 319 323 328 337
27 34 35 34 43 43 22 4 4 7 358 347 343 337 333 333 333 321 302 320 332 333 332 329 334 336 338 343 337 332 327 324 322 323 325 323 321 319 319 319 321 326 330 336
32 34 35 39 38 21 0 359 6 5 2 356 348 345 339 322 305 315 320 322 328 334 331 331 335 338 341 336 335 329 324 322 323 324 321 322 323 322 322 322 323 322 324 328
27 26 22 19 6 346 351 3 360 349 350 348 343 341 339 333 320 318 320 320 322 328 330 326 328 331 331 331 330 329 327 327 329 330 327 324 322 322 321 322 321 318 317 322
26 24 23 17 8 5 3 2 348 335 333 330 325 327 331 331 330 329 324 323 323 324 324 325 326 327 327 327 327 327 328 328 326 325 325 323 322 319 320 320 319 317 317 321
Height
1440 1441 1445 1445 1449 1453 1453 1451 1451 1445 1444 1433 1430 1430 1430 1430 1430 1430 1430 1430 1430 1430 1430 1430 1429 1428 1428 1426 1425 1423 1421 1418 1415 1412 1409 1405 1401 1397 1393 1390 1386 1383 1379 1375
1441 1440 1441 1441 1442 1445 1445 1444 1444 1441 1436 1427 1427 1428 1428 1428 1428 1427 1427 1427 1427 1427 1427 1426 1426 1425 1424 1422 1421 1419 1416 1413 1410 1407 1403 1399 1395 1391 1387 1383 1380 1376 1372 1368
1442 1441 1439 1440 1432 1435 1437 1435 1436 1434 1425 1423 1425 1425 1425 1424 1424 1424 1424 1424 1424 1424 1424 1423 1422 1421 1420 1418 1417 1414 1412 1409 1405 1402 1398 1394 1390 1386 1381 1377 1373 1369 1365 1361
1442 1443 1442 1424 1420 1421 1424 1424 1425 1422 1419 1420 1421 1421 1421 1421 1421 1421 1421 1421 1421 1421 1420 1420 1419 1418 1417 1415 1413 1410 1407 1404 1401 1397 1393 1389 1385 1380 1376 1372 1367 1363 1358 1354
1440 1440 1433 1423 1419 1421 1424 1422 1418 1418 1416 1417 1419 1419 1418 1418 1418 1418 1418 1418 1418 1418 1417 1416 1415 1414 1413 1411 1409 1406 1403 1400 1397 1393 1388 1384 1380 1375 1371 1367 1362 1358 1354 1350
1437 1435 1430 1417 1415 1415 1419 1421 1413 1414 1414 1416 1418 1422 1417 1415 1416 1415 1416 1415 1415 1414 1414 1413 1412 1411 1409 1407 1404 1402 1399 1396 1392 1388 1384 1380 1376 1371 1367 1363 1358 1354 1350 1346
1432 1431 1424 1414 1413 1415 1422 1417 1411 1410 1411 1413 1415 1415 1414 1413 1413 1413 1413 1413 1412 1411 1411 1410 1409 1407 1405 1403 1400 1398 1395 1391 1388 1384 1380 1376 1372 1367 1363 1359 1354 1350 1346 1343
1428 1428 1422 1412 1413 1415 1412 1409 1409 1409 1410 1411 1411 1411 1411 1411 1411 1410 1410 1410 1409 1408 1408 1407 1405 1404 1401 1399 1396 1394 1391 1387 1384 1380 1376 1372 1368 1364 1360 1355 1351 1346 1342 1339
1417 1414 1409 1408 1408 1408 1408 1408 1408 1408 1409 1409 1409 1409 1409 1409 1409 1408 1408 1407 1407 1406 1404 1403 1402 1400 1397 1395 1392 1389 1386 1383 1379 1376 1373 1369 1365 1360 1356 1352 1348 1344 1340 1336
1413 1409 1407 1406 1406 1406 1407 1407 1407 1407 1408 1408 1407 1407 1407 1407 1407 1406 1406 1405 1404 1403 1401 1400 1398 1396 1394 1391 1389 1386 1382 1379 1376 1372 1369 1365 1362 1358 1354 1350 1346 1343 1339 1335
1410 1407 1405 1403 1403 1404 1405 1405 1406 1406 1406 1406 1406 1405 1405 1404 1404 1404 1403 1403 1402 1400 1398 1397 1395 1392 1390 1388 1385 1382 1379 1376 1373 1369 1366 1362 1359 1355 1352 1348 1346 1342 1338 1335
1404 1402 1403 1401 1401 1402 1403 1403 1403 1403 1403 1403 1404 1403 1403 1402 1402 1402 1401 1400 1398 1397 1395 1393 1391 1389 1387 1384 1382 1379 1375 1372 1369 1366 1363 1359 1355 1352 1349 1347 1343 1340 1337 1333
1399 1398 1399 1399 1400 1400 1400 1400 1401 1401 1401 1401 1401 1401 1400 1400 1400 1399 1398 1397 1395 1394 1392 1390 1387 1385 1383 1381 1378 1376 1373 1369 1366 1363 1360 1357 1353 1350 1345 1343 1340 1337 1334 1331
1397 1397 1396 1396 1397 1397 1398 1398 1398 1398 1399 1399 1399 1398 1398 1398 1397 1396 1395 1394 1392 1391 1389 1387 1384 1382 1380 1377 1375 1373 1370 1367 1364 1361 1358 1355 1352 1348 1345 1341 1337 1334 1332 1329
1395 1395 1395 1395 1395 1395 1395 1396 1396 1396 1396 1396 1396 1396 1396 1395 1394 1393 1392 1391 1389 1387 1386 1384 1381 1379 1377 1374 1372 1370 1367 1364 1361 1359 1356 1353 1350 1347 1344 1340 1337 1333 1330 1327
1393 1393 1393 1393 1393 1393 1394 1394 1394 1394 1394 1394 1394 1394 1393 1392 1392 1391 1389 1388 1386 1384 1383 1381 1378 1376 1374 1372 1369 1367 1364 1362 1359 1356 1354 1351 1348 1345 1343 1340 1336 1333 1330 1327
1392 1391 1391 1391 1392 1392 1392 1392 1392 1392 1392 1392 1392 1391 1391 1390 1389 1388 1387 1385 1384 1382 1380 1378 1376 1374 1371 1369 1367 1364 1362 1359 1357 1354 1352 1349 1346 1344 1342 1339 1336 1333 1331 1329
1391 1391 1391 1391 1390 1391 1391 1391 1391 1391 1390 1390 1390 1389 1389 1388 1386 1385 1384 1382 1381 1379 1378 1376 1374 1371 1369 1366 1364 1362 1359 1357 1354 1352 1350 1347 1345 1343 1341 1338 1336 1333 1331 1329
1390 1390 1390 1390 1390 1390 1390 1390 1390 1389 1389 1389 1388 1387 1387 1386 1385 1383 1382 1380 1378 1376 1375 1373 1371 1369 1366 1364 1362 1360 1357 1355 1352 1350 1348 1346 1344 1342 1340 1337 1335 1333 1331 1329
1390 1390 1389 1389 1389 1389 1389 1389 1388 1388 1388 1387 1386 1386 1385 1384 1383 1381 1380 1378 1377 1375 1373 1371 1369 1366 1364 1362 1360 1357 1355 1353 1351 1348 1346 1344 1342 1340 1339 1337 1335 1333 1331 1329
1389 1389 1389 1389 1389 1389 1388 1388 1387 1387 1386 1386 1385 1384 1383 1382 1381 1380 1378 1376 1375 1373 1371 1369 1367 1364 1362 1360 1358 1355 1353 1351 1349 1347 1345 1343 1341 1339 1338 1336 1334 1333 1331 1329
1390 1389 1389 1389 1389 1388 1388 1388 1387 1386 1386 1385 1384 1383 1382 1381 1380 1378 1377 1376 1373 1371 1369 1367 1365 1363 1361 1358 1356 1354 1351 1349 1347 1345 1343 1342 1340 1338 1337 1335 1334 1333 1331 1330
1390 1389 1389 1389 1388 1388 1388 1387 1387 1386 1385 1384 1383 1382 1381 1380 1378 1377 1375 1374 1372 1370 1368 1365 1363 1361 1359 1356 1354 1352 1350 1348 1346 1344 1343 1341 1339 1338 1336 1335 1334 1333 1331 1330
1390 1390 1389 1389 1389 1388 1388 1387 1386 1386 1385 1384 1383 1381 1380 1378 1377 1376 1374 1372 1370 1368 1366 1364 1362 1359 1357 1355 1352 1350 1348 1347 1345 1343 1342 1340 1338 1337 1336 1335 1334 1333 1331 1330
1390 1390 1389 1389 1388 1388 1387 1387 1386 1385 1384 1383 1382 1381 1379 1378 1376 1374 1373 1371 1369 1366 1364 1362 1360 1358 1356 1353 1351 1349 1347 1345 1344 1342 1340 1339 1338 1337 1336 1335 1334 1333 1332 1331
1390 1390 1390 1389 1389 1388 1387 1387 1386 1385 1383 1382 1381 1380 1378 1377 1375 1373 1371 1369 1367 1365 1363 1361 1359 1357 1354 1352 1350 1348 1346 1344 1343 1341 1340 1338 1337 1336 1335 1335 1334 1333 1332 1331
1391 1390 1390 1389 1389 1388 1387 1386 1385 1384 1383 1381 1380 1378 1377 1375 1373 1371 1369 1367 1365 1363 1361 1359 1357 1355 1353 1351 1349 1347 1345 1343 1342 1340 1339 1338 1337 1336 1335 1334 1334 1333 1332 1331